# Land Stadt Wetter Temperatur Luftdruck Luftfeuchtigkeit Sichtweite Windgeschwindigkeit Windrichtung Ortszeit
1 no Oslo Clouds 9 1003 1 10000 5 20 02.08.2018 14:23
2 sa Riad Clear 28 1010 13 10000 3 15 02.08.2018 14:21
3 us Death Valley Clear 31 1008 18 10000 6 186 02.08.2018 14:22
4 mn Uliastai Clear -3 1034 19 10000 9 315 02.08.2018 14:23
5 af Kabul Clear 19 1013 21 10000 4 44 02.08.2018 14:21
6 us Las Vegas Clear 28 1010 24 10000 11 170 02.08.2018 14:21
7 au Alice Springs Clouds 27 1010 26 10000 7 240 02.08.2018 14:21
8 qa Doha Clear 35 1007 26 10000 13 280 02.08.2018 14:23
9 iq Bagdad Clear 27 1007 29 10000 7 270 02.08.2018 14:22
10 tr Alanya Clear 26 1012 34 10000 7 302 02.08.2018 14:22
11 jp Tokio Clouds 29 1020 36 10000 13 120 02.08.2018 14:22
12 cn Lhasa Clouds 16 1010 40 10000 11 189 02.08.2018 14:22
13 au Perth Clouds 20 1015 46 10000 24 100 02.08.2018 14:21
14 au Darwin Clear 32 1008 46 10000 7 360 02.08.2018 14:22
15 tr Ankara Clear 20 1013 47 10000 4 0 02.08.2018 14:23
16 tr Istanbul Clouds 26 1008 47 10000 15 310 02.08.2018 14:23
17 in Jagatsukh Clear 22 1014 48 10000 12 196 02.08.2018 14:22
18 it Palermo Clear 21 1004 49 10000 2 236 02.08.2018 14:22
19 mg Antananarivo Clouds 18 1024 52 10000 19 120 02.08.2018 14:21
20 th Bangkok Rain 32 1005 53 10000 4 291 02.08.2018 14:21
21 gr Athen Clouds 25 1013 55 10000 19 300 02.08.2018 14:22
22 ma Casablanca Clouds 20 1015 56 6000 7 280 02.08.2018 14:23
23 ru Jakutsk Clouds -1 1013 58 10000 18 20 02.08.2018 14:22
24 es Sevilla Clear 17 1020 58 10000 17 60 02.08.2018 14:22
25 kr Seoul Rain 22 1014 58 10000 30 120 02.08.2018 14:21
26 jp Nagasaki Clouds 29 1017 58 10000 17 250 02.08.2018 14:21
27 ph Manila Clouds 32 1008 58 10000 15 110 02.08.2018 14:21
28 in Nagpur Haze 32 1009 58 5000 13 340 02.08.2018 14:21
29 ma Marrakesch Clouds 19 1016 59 10000 6 80 02.08.2018 14:23
30 ru Surgut Clear 1 1034 59 10000 14 200 02.08.2018 14:23
31 mn Ulaanbaatar Clouds 0 1025 59 10000 7 0 02.08.2018 14:23
32 ar Ushuaia Clear 4 1022 60 10000 15 290 02.08.2018 14:22
33 es Madrid Clear 12 1014 60 10000 8 38 02.08.2018 14:23
34 us Tucson Clear 24 1013 61 10000 9 200 02.08.2018 14:21
35 id Jakarta Clouds 32 1007 62 10000 17 355 02.08.2018 14:22
36 ar Esquel Clouds 8 1021 62 10000 2 226 02.08.2018 14:22
37 cl Santiago Clear 14 977 63 10000 6 87 02.08.2018 14:23
38 pe Cusco Clouds 11 1019 64 10000 5 302 02.08.2018 14:23
39 au Sydney Clouds 16 1017 64 10000 20 120 02.08.2018 14:22
40 ck Avarua Clouds 22 1017 64 10000 15 110 02.08.2018 14:22
41 mx Mexiko Stadt Clear 14 1021 66 10000 9 300 02.08.2018 14:21
42 pg Port Moresby Haze 31 1005 66 10000 19 150 02.08.2018 14:21
43 mv Male Clouds 30 1012 66 10000 30 270 02.08.2018 14:23
44 ae Dubai Clear 31 1007 66 10000 7 140 02.08.2018 14:21
45 pt Lissabon Clear 17 1020 67 10000 20 30 02.08.2018 14:22
46 es Barcelona Clear 18 1025 68 10000 22 320 02.08.2018 14:22
47 uy Montevideo Fog 13 1021 68 800 8 345 02.08.2018 14:22
48 ke Nairobi Clouds 19 1023 68 10000 7 100 02.08.2018 14:22
49 cn Shanghai Clear 33 1010 70 10000 14 180 02.08.2018 14:21
50 ca Montreal Clear 7 1027 70 10000 30 30 02.08.2018 14:22
51 us Nome Clear 3 1005 70 10000 15 20 02.08.2018 14:23
52 in Mumbai Haze 30 1010 70 5000 13 300 02.08.2018 14:22
53 us New York Clouds 16 1015 71 10000 39 49 02.08.2018 14:22
54 mx Veracruz Clouds 25 1014 72 10000 5 318 02.08.2018 14:21
55 bs Nassau Clear 28 1010 72 10000 9 256 02.08.2018 14:22
56 at Wien Clouds 14 1019 73 10000 26 303 02.08.2018 14:22
57 bg Sofia Clouds 16 1019 73 10000 32 280 02.08.2018 14:21
58 de Helgoland Rain 15 1010 73 10000 39 288 02.08.2018 14:22
59 ru Anadyr Clear 2 1008 74 10000 7 320 02.08.2018 14:23
60 cn Peking Clouds 21 1011 75 10000 5 47 02.08.2018 14:23
61 us Honolulu Clouds 26 1012 76 10000 13 30 02.08.2018 14:22
62 sb Honiara Clouds 28 1009 76 10000 4 67 02.08.2018 14:22
63 es Tarifa Clear 18 1021 77 10000 46 87 02.08.2018 14:21
64 es Las Palmas de Gran Canaria Clouds 21 1016 77 10000 14 24 02.08.2018 14:21
65 fj Suva Rain 27 1011 78 10000 15 70 02.08.2018 14:21
66 eg Kairo Clouds 25 1014 78 10000 11 20 02.08.2018 14:22
67 ru Werchojansk Clouds -2 1017 79 10000 3 201 02.08.2018 14:22
68 it Rom Clear 15 1022 79 10000 6 66 02.08.2018 14:23
69 no Hammerfest Clouds 4 1002 81 10000 13 100 02.08.2018 14:22
70 us Los Angeles Clouds 18 1016 81 10000 11 250 02.08.2018 14:22
71 us Denver Clouds 13 1019 81 10000 3 45 02.08.2018 14:21
72 ad Andorra la Vella Clouds 11 1030 82 10000 2 341 02.08.2018 14:22
73 za Kapstadt Clear 13 1015 82 10000 7 20 02.08.2018 14:22
74 et Addis Abeba Clouds 13 1026 82 10000 0 0 02.08.2018 14:23
75 fr Nizza Clear 17 1019 84 10000 11 320 02.08.2018 14:22
76 us Chicago Clear 14 1025 84 10000 11 360 02.08.2018 14:23
77 ar Buenos Aires Clear 15 1022 86 10000 7 350 02.08.2018 14:22
78 de Köln Clouds 14 1014 86 10000 13 230 02.08.2018 14:21
79 de Nürnberg Rain 12 1019 86 10000 15 230 02.08.2018 14:21
80 de Hiddensee Clouds 13 1007 86 10000 41 262 02.08.2018 14:21
81 is Reykjavik Clouds 8 986 87 10000 46 250 02.08.2018 14:22
82 de Flensburg Clear 11 1007 87 10000 22 260 02.08.2018 14:21
83 de Dresden Clear 11 1009 87 10000 15 250 02.08.2018 14:22
84 de Freiburg Clouds 15 1020 87 10000 6 189 02.08.2018 14:22
85 bo Potisi Clear 3 1020 87 10000 6 339 02.08.2018 14:22
86 de Kassel Clouds 11 1014 87 10000 19 200 02.08.2018 14:21
87 ru Moskau Clouds 10 1006 87 10000 17 237 02.08.2018 14:22
88 gb Glasgow Clouds 10 1016 88 10000 14 234 02.08.2018 14:21
89 us Fairbanks Clouds 6 1005 88 10000 0 0 02.08.2018 14:23
90 br Manaus Clouds 25 1013 88 10000 11 190 02.08.2018 14:21
91 br Rio de Janeiro Clouds 21 1015 88 10000 7 200 02.08.2018 14:22
92 bg Warna Rain 19 1009 89 10000 33 270 02.08.2018 14:21
93 ec San Cristobal Clouds 20 1013 89 10000 19 175 02.08.2018 14:22
94 de Berlin Clear 11 1002 90 10000 20 250 02.08.2018 14:21
95 it Mailand Clear 13 1018 90 10000 3 248 02.08.2018 14:21
96 fi Helsinki Clouds 9 1009 90 10000 7 60 02.08.2018 14:21
97 ie Dublin Clouds 10 1017 90 10000 15 240 02.08.2018 14:21
98 de Braunschweig Clouds 12 1013 90 10000 15 240 02.08.2018 14:21
99 gb London Rain 13 1016 91 10000 15 250 02.08.2018 14:22
100 de Stuttgart Clouds 13 1020 91 10000 4 0 02.08.2018 14:22
101 de München Rain 12 1022 91 10000 5 309 02.08.2018 14:21
102 ua Kiew Rain 14 989 91 10000 13 166 02.08.2018 14:21
103 de Hannover Clouds 12 1013 92 10000 15 250 02.08.2018 14:21
104 de Emden Clear 12 1012 92 10000 16 253 02.08.2018 14:21
105 ch Bern Clouds 14 1025 92 10000 7 100 02.08.2018 14:23
106 us Miami Clouds 24 1011 93 10000 11 10 02.08.2018 14:23
107 de Frankfurt Rain 13 1016 93 10000 15 200 02.08.2018 14:22
108 fr Paris Clouds 16 1019 93 10000 13 210 02.08.2018 14:22
109 fi Rovaniemi Rain 4 1006 93 10000 11 120 02.08.2018 14:21
110 es Palma de Mallorca Clouds 14 1027 93 10000 6 10 02.08.2018 14:22
111 bo La Paz Clouds 2 1038 93 10000 11 70 02.08.2018 14:22
112 gl Nuuk Clouds 1 993 93 10000 7 60 02.08.2018 14:22
113 gb Manchester Clouds 10 1015 93 10000 9 220 02.08.2018 14:21
114 fr Bordeaux Clouds 17 1026 94 10000 7 220 02.08.2018 14:21
115 se Stockholm Clouds 11 1001 94 10000 6 100 02.08.2018 14:23
116 ch Andermatt Clouds 7 1023 95 10000 7 294 02.08.2018 14:23
117 vn Hanoi Clouds 30 1010 96 10000 9 133 02.08.2018 14:21
118 de Bremen Clouds 11 1012 96 10000 13 260 02.08.2018 14:22
119 ru Amderma Clouds 3 1013 96 903 26 201 02.08.2018 14:23
120 de Magdeburg Clear 9 1004 96 10000 17 240 02.08.2018 14:22
121 do Santo Domingo Clouds 25 1017 96 10000 6 213 02.08.2018 14:21
122 at Innsbruck Rain 11 1022 96 10000 6 170 02.08.2018 14:23
123 nz Wellington Clouds 9 1004 96 7000 39 180 02.08.2018 14:23
124 de Oberstdorf Clouds 10 1022 96 10000 3 152 02.08.2018 14:21
125 de Hamburg Rain 11 1010 97 10000 15 240 02.08.2018 14:21
126 de Trier Rain 13 1018 98 7309 12 212 02.08.2018 14:21
127 de Torfhaus Rain 7 1015 99 7653 14 234 02.08.2018 14:22
128 cd Kisangani Clouds 21 1013 99 10000 3 107 02.08.2018 14:23